CAPE
0 0 0 0 0 0 0 0 0 0 0 0 0 0 0 0 0 0 0 0 0 0 0 0 0 0 0 0 0 0 0 0 1 0 0 0 0 0 1 1 6 3 11 1
0 0 0 0 0 0 0 0 0 0 0 0 0 0 0 0 0 0 0 0 0 0 0 0 0 0 0 0 0 0 0 0 0 1 0 0 0 0 0 0 0 10 3 2
0 0 0 0 0 0 0 0 0 0 0 0 0 0 0 0 0 0 0 0 0 0 0 0 0 0 0 0 0 0 0 0 0 0 0 1 1 1 1 0 0 0 1 0
0 0 0 0 0 0 0 0 0 0 0 0 0 0 0 0 0 0 0 0 0 0 0 1 0 0 0 0 0 0 0 1 0 0 0 0 0 0 0 0 1 1 0 1
0 0 0 0 0 0 0 0 0 0 0 0 0 0 0 0 0 0 0 0 0 0 0 0 0 0 0 0 0 0 0 0 1 0 0 0 0 0 0 0 1 1 2 0
0 0 0 0 0 0 0 0 1 0 0 0 0 0 0 0 0 0 0 0 0 0 0 0 0 0 0 0 0 0 0 0 0 0 0 0 0 0 0 0 0 1 3 5
0 0 0 0 0 0 0 0 0 0 0 0 0 0 0 0 0 0 0 0 0 0 0 3 0 0 0 0 0 0 0 0 0 0 0 0 0 0 0 0 0 0 0 0
0 0 0 0 0 0 0 0 0 0 0 0 11 1 0 0 0 0 0 0 0 0 2 5 12 0 0 0 0 0 0 0 0 0 0 0 0 0 0 0 0 0 0 0
0 0 0 0 0 0 0 0 0 3 0 0 0 0 0 0 0 0 0 0 0 0 26 53 32 1 0 0 0 0 0 0 1 0 0 0 0 0 0 0 0 0 0 0
0 0 0 0 0 0 0 0 5 1 0 1 0 0 0 0 0 0 0 0 0 0 203 114 80 15 0 0 0 0 0 0 0 0 0 0 0 0 0 0 0 0 0 0
8 19 0 5 0 0 0 0 12 1 8 2 0 0 7 21 11 0 0 0 0 0 113 294 193 83 10 0 0 0 0 0 0 0 0 0 0 0 0 0 0 0 0 0
0 3 17 20 25 10 0 0 0 7 0 0 0 0 20 10 41 0 0 0 0 0 0 269 263 165 3 0 0 0 0 0 0 1 1 0 0 0 0 0 0 0 0 0
0 0 1 0 10 0 0 0 0 23 0 0 0 0 0 13 15 14 0 0 0 0 0 0 305 255 64 0 0 0 0 0 0 0 4 7 0 0 0 0 0 0 0 0
0 0 0 0 0 0 0 0 0 0 3 0 0 0 5 26 8 5 0 4 0 0 0 21 304 352 163 14 0 0 0 0 0 0 0 10 14 1 0 0 0 0 0 0
0 0 0 0 0 0 0 0 0 0 0 0 0 18 19 39 40 54 32 45 0 0 0 109 233 291 212 57 2 0 0 0 0 0 0 1 7 13 4 0 0 0 0 0
4 1 0 0 0 0 0 0 0 0 0 0 0 0 36 40 23 45 72 25 6 1 0 0 31 208 354 182 26 0 0 0 0 0 0 0 0 8 12 4 0 0 0 0
1 0 0 0 0 0 0 0 0 0 23 12 4 16 0 0 10 1 49 61 35 0 0 0 0 0 0 0 130 41 6 0 0 0 0 0 0 0 4 11 4 0 0 0
0 0 0 0 0 0 0 9 41 11 2 0 0 0 0 0 13 10 7 5 1 1 2 1 0 0 0 0 0 0 61 20 3 1 0 0 0 0 0 0 4 12 7 1
0 0 0 0 0 0 0 3 33 13 6 12 0 6 2 0 12 1 11 1 3 2 3 2 1 0 0 0 0 0 0 4 33 3 2 2 0 0 0 0 2 4 4 3
0 0 0 0 0 0 12 21 3 20 67 0 0 0 0 0 0 1 16 2 4 2 1 0 0 0 0 0 0 0 1 0 1 1 0 0 2 3 0 0 0 0 0 0
0 0 0 0 0 0 3 7 0 13 5 0 0 0 4 6 5 1 1 0 2 2 0 0 0 0 1 0 0 0 0 3 6 4 2 4 2 0 0 1 0 1 0 2
0 0 1 0 4 0 0 0 0 0 3 0 0 0 0 2 4 1 2 0 0 0 0 0 1 1 2 1 1 0 1 1 1 1 1 1 3 10 5 0 1 0 0 0
2 0 0 0 0 4 0 0 0 0 0 0 0 0 0 0 1 3 1 2 0 1 1 1 1 1 1 2 2 2 2 0 0 0 1 2 1 2 10 10 6 0 3 3
37 10 2 2 16 3 0 0 0 0 0 0 0 0 0 0 1 2 1 0 0 0 2 1 0 1 1 3 2 2 2 0 0 0 0 0 1 1 4 6 10 1 0 0
6 1 9 14 7 1 0 0 0 0 0 0 0 0 0 0 0 1 1 2 1 1 1 2 2 3 3 2 2 2 0 0 0 1 1 1 0 0 1 5 12 11 8 8
7 7 0 1 11 15 1 0 0 0 0 0 0 0 0 0 0 0 1 1 1 1 0 1 2 2 3 2 2 2 0 0 0 1 1 1 1 0 0 0 0 7 2 4
CIN
-0 -0 -0 -0 -0 -0 -0 -0 -0 -0 -0 -0 -0 -0 -0 -0 -0 -0 -0 -0 -0 -0 -0 -0 -0 -0 -0 -0 -0 -0 -0 -0 -0 -0 -0 -0 -0 -0 -64 -0 -14 -9 -11 -0
-0 -0 -0 -0 -0 -0 -0 -0 -0 -0 -0 -0 -0 -0 -0 -0 -0 -0 -0 -0 -0 -0 -0 -0 -0 -0 -0 -0 -0 -0 -0 -0 -0 -0 -0 -0 -0 -0 -0 -0 -0 -6 -2 -0
-0 -0 -0 -0 -0 -0 -0 -0 -0 -0 -0 -0 -0 -0 -0 -0 -0 -0 -0 -0 -0 -0 -0 -0 -0 -0 -0 -0 -0 -0 -0 -0 -0 -0 -0 -0 -0 -0 -0 -0 -0 -0 -5 -0
-0 -0 -0 -0 -0 -0 -0 -0 -0 -0 -0 -0 -0 -0 -0 -0 -0 -0 -0 -0 -0 -0 -0 -229 -0 -0 -0 -0 -0 -0 -0 -0 -1 -0 -0 -0 -0 -0 -0 -0 -0 -0 -0 -0
-0 -0 -0 -0 -0 -0 -0 -0 -0 -0 -0 -0 -0 -0 -0 -0 -0 -0 -0 -0 -0 -0 -0 -0 -0 -0 -0 -0 -0 -0 -0 -0 -0 -0 -0 -0 -0 -0 -0 -0 -0 -0 -0 -0
-0 -0 -0 -0 -0 -0 -0 -0 -13 -0 -0 -0 -0 -0 -0 -0 -0 -0 -0 -0 -0 -0 -0 -87 -0 -0 -0 -0 -0 -0 -0 -0 -0 -0 -0 -0 -0 -0 -0 -0 -0 -0 -0 -0
-0 -0 -0 -0 -0 -0 -0 -0 -0 -0 -0 -0 -0 -0 -0 -0 -0 -0 -0 -0 -0 -0 -0 -451 -0 -0 -0 -0 -0 -0 -0 -0 -0 -0 -0 -0 -0 -0 -0 -0 -0 -0 -0 -0
-0 -0 -0 -0 -0 -0 -0 -0 -0 -0 -0 -0 -30 -6 -0 -0 -0 -0 -0 -0 -0 -0 -47 -494 -745 -0 -0 -0 -0 -0 -0 -0 -0 -0 -0 -0 -0 -0 -0 -0 -0 -0 -0 -0
-0 -0 -0 -0 -0 -0 -0 -0 -0 -9 -0 -5 -0 -0 -0 -0 -0 -0 -0 -0 -0 -0 -425 -562 -639 -160 -0 -0 -0 -0 -0 -0 -0 -0 -0 -0 -0 -0 -0 -0 -0 -0 -0 -0
-0 -0 -0 -0 -0 -0 -0 -0 -28 -31 -1 -1 -0 -0 -0 -0 -0 -0 -0 -0 -0 -0 -412 -514 -588 -717 -0 -0 -0 -0 -0 -0 -0 -0 -0 -0 -0 -0 -0 -0 -0 -0 -0 -0
-60 -29 -0 -48 -0 -0 -0 -0 -17 -26 -42 -4 -0 -0 -84 -90 -1 -0 -0 -0 -0 -0 -258 -440 -538 -615 -558 -0 -0 -0 -0 -0 -0 -0 -0 -0 -0 -0 -0 -0 -0 -0 -0 -0
-0 -28 -27 -29 -110 -141 -0 -0 -35 -37 -0 -0 -0 -0 -72 -33 -14 -0 -0 -0 -0 -0 -0 -228 -386 -505 -513 -0 -0 -0 -0 -0 -0 -0 -0 -0 -0 -0 -0 -0 -0 -0 -0 -0
-0 -0 -41 -0 -52 -0 -0 -0 -0 -33 -0 -0 -0 -0 -0 -0 -6 -46 -0 -0 -0 -0 -0 -0 -271 -431 -613 -0 -0 -0 -0 -0 -0 -1 -1 -1 -4 -0 -0 -0 -0 -0 -0 -0
-0 -0 -0 -0 -0 -0 -0 -0 -0 -0 -17 -0 -0 -0 -19 -33 -33 -62 -0 -9 -0 -0 -0 -142 -234 -338 -505 -467 -0 -0 -0 -0 -0 -0 -0 -0 -0 -7 -0 -0 -0 -0 -0 -0
-0 -0 -0 -0 -0 -0 -0 -0 -0 -0 -0 -0 -0 -37 -24 -42 -42 -73 -36 -59 -5 -0 -0 -38 -214 -290 -388 -493 -148 -0 -0 -0 -0 -0 -0 -3 -2 -1 -3 -0 -0 -0 -0 -0
-80 -40 -0 -0 -0 -0 -0 -0 -0 -0 -0 -0 -0 -0 -79 -88 -147 -145 -183 -162 -36 -63 -0 -0 -146 -193 -232 -325 -448 -1 -0 -0 -0 -0 -0 -0 -2 -1 -1 -3 -0 -0 -0 -0
-28 -0 -0 -0 -0 -0 -0 -0 -0 -0 -81 -61 -14 -48 -0 -109 -165 -211 -213 -189 -130 -7 -0 -0 -0 -0 -0 -0 -257 -335 -399 -0 -0 -0 -0 -0 -0 -0 -3 -0 -3 -2 -0 -0
-0 -0 -0 -0 -0 -0 -0 -33 -43 -53 -0 -0 -0 -0 -0 -0 -155 -218 -226 -112 -0 -0 -0 -0 -0 -0 -0 -0 -0 -0 -310 -422 -424 -223 -0 -0 -0 -0 -0 -1 -2 -1 -1 -8
-0 -0 -0 -0 -0 -0 -0 -64 -41 -14 -20 -11 -0 -0 -0 -0 -123 -74 -96 -0 -0 -0 -0 -0 -0 -0 -0 -0 -0 -0 -0 -28 -299 -270 -314 -298 -0 -0 -0 -1 -1 -1 -3 -5
-0 -0 -0 -0 -0 -0 -6 -29 -85 -57 -0 -0 -0 -0 -0 -0 -0 -0 -0 -0 -0 -0 -0 -0 -0 -0 -0 -0 -0 -0 -0 -0 -0 -0 -0 -0 -206 -286 -0 -0 -0 -0 -0 -0
-2 -2 -0 -0 -0 -0 -21 -41 -16 -23 -0 -0 -0 -7 -0 -0 -0 -0 -0 -0 -0 -0 -0 -0 -0 -0 -0 -0 -0 -0 -0 -0 -0 -0 -0 -0 -0 -0 -49 -141 -0 -0 -0 -0
-0 -3 -1 -0 -1 -0 -0 -0 -0 -0 -0 -0 -0 -0 -0 -0 -0 -0 -0 -0 -0 -0 -0 -0 -0 -0 -0 -0 -0 -0 -0 -0 -0 -0 -0 -0 -0 -0 -0 -0 -0 -0 -0 -0
-0 -8 -0 -0 -0 -4 -0 -0 -0 -0 -0 -0 -0 -0 -0 -0 -0 -0 -0 -0 -0 -0 -0 -0 -0 -0 -0 -0 -0 -0 -0 -0 -0 -0 -0 -0 -0 -0 -0 -0 -0 -0 -0 -0
-0 -2 -1 -10 -0 -2 -0 -0 -0 -0 -0 -0 -0 -0 -0 -0 -0 -0 -0 -0 -0 -0 -0 -0 -0 -0 -0 -0 -0 -0 -0 -0 -0 -0 -0 -0 -0 -0 -0 -0 -0 -0 -0 -0
-0 -0 -0 -0 -0 -0 -0 -0 -0 -0 -0 -0 -0 -0 -0 -0 -0 -0 -0 -0 -0 -0 -0 -0 -0 -0 -0 -0 -0 -0 -0 -0 -0 -0 -0 -0 -0 -0 -0 -0 -0 -0 -0 -0
-0 -0 -0 -0 -0 -0 -0 -0 -0 -0 -0 -0 -0 -0 -0 -0 -0 -0 -0 -0 -0 -0 -0 -0 -0 -0 -0 -0 -0 -0 -0 -0 -0 -0 -0 -0 -0 -0 -0 -0 -0 -0 -0 -0
Wind_Speed
4 4 8 10 12 4 3 5 8 1 5 5 11 20 12 7 11 15 16 16 12 11 6 16 17 16 16 15 16 15 14 13 9 6 4 2 3 2 2 3 8 12 13 17
2 15 7 7 6 7 9 11 17 13 10 12 14 20 11 7 11 10 10 16 13 4 8 15 16 16 18 18 15 14 14 15 10 7 4 3 2 1 1 2 2 8 11 12
11 5 15 12 11 12 12 13 12 17 10 8 4 19 14 12 11 13 18 14 14 11 16 15 16 16 16 18 18 16 15 15 11 9 7 4 4 3 2 3 2 2 10 15
11 12 14 11 15 13 15 16 19 16 7 9 4 20 13 13 19 20 20 17 16 10 16 19 17 16 19 16 15 14 14 15 12 12 9 10 5 5 3 4 2 4 7 13
8 2 14 17 16 14 15 17 15 17 6 5 3 3 7 1 12 20 18 17 17 10 17 23 21 20 17 17 15 14 15 17 15 12 12 9 8 5 6 5 6 5 5 7
8 6 2 4 4 7 5 7 6 3 4 5 7 4 21 3 10 16 17 13 17 6 14 22 18 16 16 14 14 13 16 17 14 13 12 11 11 10 9 8 6 4 4 6
7 19 13 6 7 7 5 2 2 2 1 6 7 7 15 15 15 21 24 21 22 14 12 18 20 18 18 18 16 14 17 18 15 14 13 10 11 11 11 11 8 8 5 5
8 7 14 9 20 8 8 8 7 6 6 7 6 8 6 6 12 22 16 16 21 17 14 21 23 21 20 19 18 17 17 18 16 14 14 11 10 8 9 10 8 7 7 7
5 7 3 4 21 15 8 9 7 4 3 3 5 6 6 6 12 22 21 25 18 18 21 22 19 18 19 19 20 19 18 19 18 15 12 13 11 12 11 11 9 8 7 7
5 5 4 6 5 6 11 7 1 2 6 14 6 7 9 10 17 16 21 16 16 9 17 17 18 19 17 17 16 16 16 19 19 17 14 13 13 12 11 10 8 10 9 10
3 1 6 4 1 7 4 1 1 2 4 6 2 4 6 7 10 19 20 21 15 13 6 13 17 18 17 16 17 16 16 17 19 18 15 15 14 13 11 12 10 9 10 10
1 2 4 8 7 4 3 2 6 5 5 5 4 6 10 9 13 5 17 19 20 17 7 10 12 16 17 17 17 17 16 16 17 16 16 15 14 14 14 12 14 10 11 11
2 1 2 2 4 7 6 5 6 5 4 12 3 4 4 12 6 3 12 19 19 19 12 7 13 16 16 16 16 16 15 15 15 16 15 15 15 15 15 15 14 13 11 12
6 2 3 2 2 3 2 6 7 4 2 4 4 7 8 4 4 8 12 19 17 14 17 1 9 13 14 15 16 16 15 15 15 16 16 16 16 16 14 14 15 15 14 14
4 3 3 1 3 5 6 5 13 4 7 3 4 6 4 8 8 11 6 13 9 20 20 5 7 11 12 13 13 13 13 15 16 17 17 16 15 15 15 16 15 14 14 14
7 3 4 3 5 5 6 6 4 8 8 11 12 5 7 6 3 7 11 12 5 12 16 14 4 3 3 7 9 11 13 14 14 16 17 17 17 15 16 16 16 15 15 15
1 1 3 2 6 6 4 3 7 3 9 5 1 5 8 9 12 12 13 12 12 13 16 18 16 15 14 8 2 8 8 7 11 13 15 16 17 17 17 15 16 17 17 15
3 3 2 3 3 2 3 9 10 14 10 9 8 9 8 8 3 12 15 13 14 13 13 14 12 12 13 12 11 7 8 15 14 14 13 14 16 16 15 16 17 17 16 17
9 4 2 3 1 6 3 6 3 3 8 11 8 9 9 10 1 10 13 14 13 12 11 9 9 10 11 13 12 11 13 7 8 10 11 13 13 15 16 17 17 15 14 14
6 5 5 3 2 3 1 6 8 8 5 14 9 11 11 14 7 4 11 13 13 11 10 11 10 9 11 11 11 11 14 13 11 10 11 9 11 15 16 16 16 14 13 10
3 2 5 2 1 6 1 8 8 3 2 10 9 11 9 8 7 11 15 15 13 12 13 13 13 13 13 15 12 12 12 13 11 10 10 11 9 3 6 10 5 5 8 9
4 5 3 3 3 7 7 0 4 4 3 4 7 9 9 9 9 12 10 13 13 14 16 16 12 13 14 15 11 11 13 10 10 10 11 13 13 9 7 9 7 6 9 11
3 3 4 5 3 5 8 10 6 5 4 4 4 7 7 9 10 10 11 9 13 16 13 12 10 9 13 16 13 13 12 10 9 12 13 12 14 14 14 11 9 7 7 8
1 5 2 2 7 11 9 9 9 8 6 7 7 8 8 9 10 9 10 11 12 12 12 11 12 13 14 12 12 11 10 9 10 11 12 12 14 15 14 11 10 9 7 6
4 5 5 6 6 10 9 9 7 9 8 10 10 11 11 9 10 9 10 11 10 10 11 12 12 12 11 10 10 10 8 8 11 12 11 10 12 15 17 18 12 12 14 10
6 4 2 3 7 4 7 7 10 11 11 11 10 11 11 10 10 9 10 10 9 10 10 10 12 11 10 10 11 10 10 11 10 12 10 9 8 9 11 15 17 29 25 30
Wind_Direction
206 183 203 193 210 232 242 258 249 309 248 285 269 275 275 280 301 301 302 288 243 220 205 154 152 146 145 150 152 159 149 152 142 138 140 156 184 174 172 194 187 179 182 174
237 235 196 202 221 245 250 262 268 281 260 257 268 275 278 258 271 267 295 301 261 189 142 155 153 154 160 154 155 158 155 156 154 156 143 145 143 115 117 128 187 190 179 165
217 220 191 192 221 235 245 241 253 249 267 263 263 275 283 299 308 300 290 284 267 203 163 164 165 163 155 160 163 160 159 155 151 152 123 114 104 103 100 131 147 184 185 169
249 225 240 216 225 208 245 237 246 255 236 255 177 275 258 287 276 280 277 284 276 231 178 171 167 166 168 166 160 157 157 156 155 154 144 159 163 159 149 146 130 109 176 174
226 187 202 228 232 219 239 247 239 245 211 131 231 267 279 197 286 274 271 271 275 236 181 173 181 173 166 159 159 157 158 163 161 159 156 166 163 151 141 138 131 108 101 145
258 298 244 205 238 222 256 231 217 141 132 234 181 156 285 222 247 274 273 274 276 235 189 186 174 154 155 155 156 157 162 168 160 160 160 172 164 157 155 157 151 146 121 121
271 261 259 241 289 275 196 196 233 291 214 234 190 208 259 269 265 269 277 282 281 282 187 168 163 159 159 165 161 161 166 170 166 167 164 165 166 165 168 164 163 161 152 143
202 286 210 200 213 193 206 177 176 209 217 253 204 236 246 226 329 308 249 309 268 253 179 179 173 163 163 165 164 166 170 170 169 170 167 165 166 168 169 179 168 171 169 159
198 261 218 203 217 177 210 222 189 205 189 267 225 275 295 17 346 340 350 346 311 261 177 174 170 161 163 169 172 171 169 172 173 171 171 169 173 174 176 176 173 175 165 165
259 264 264 276 137 212 193 170 191 231 220 251 259 264 258 13 341 330 324 334 354 331 162 165 169 166 171 172 167 167 172 173 175 172 174 177 175 184 177 175 170 174 168 172
210 166 283 321 245 182 170 186 119 61 167 213 300 256 93 63 322 335 321 335 357 351 284 177 174 175 167 162 168 170 172 171 177 176 175 182 182 178 187 181 184 176 172 175
280 125 230 237 47 42 54 247 168 165 241 228 205 258 124 168 234 3 316 322 330 335 351 209 181 168 167 166 170 174 173 174 177 176 175 184 186 184 182 192 189 182 185 184
289 228 222 247 24 24 30 342 10 322 176 240 222 259 131 52 47 36 343 334 323 311 322 256 179 173 172 171 171 173 176 178 177 171 180 185 190 192 192 191 190 192 184 188
224 102 114 141 84 217 328 337 328 40 347 337 287 301 342 144 200 127 60 299 287 301 324 132 184 181 171 170 173 173 175 178 178 176 181 190 191 191 197 199 197 193 193 195
47 35 20 30 267 256 271 180 274 249 272 236 326 304 7 12 36 6 355 309 344 337 318 238 188 168 165 165 177 178 177 177 179 184 188 194 194 193 192 197 200 201 200 198
354 347 12 319 7 356 303 291 231 254 235 246 245 244 8 10 314 12 11 349 6 1 14 28 31 57 140 168 178 186 184 187 185 190 194 189 195 195 195 196 196 198 203 208
231 108 42 297 350 328 304 301 259 225 39 293 16 17 342 356 15 25 9 24 55 40 22 23 25 36 37 25 202 183 190 195 208 204 194 196 196 199 198 195 197 201 203 200
213 140 137 238 338 18 269 2 79 98 66 52 36 17 3 342 9 42 26 43 38 41 46 36 8 30 23 3 3 346 202 186 192 208 209 204 197 207 205 204 204 205 202 204
201 150 119 94 9 285 356 10 358 83 49 42 36 13 20 345 198 48 38 46 29 25 27 45 47 32 9 17 11 15 25 6 210 219 217 210 209 205 202 209 207 203 203 203
164 135 117 111 204 256 340 316 322 258 102 7 4 6 10 26 36 326 26 41 26 9 23 24 27 54 43 20 40 28 31 29 22 353 327 286 203 214 210 209 205 205 209 203
117 68 165 125 306 286 276 329 309 73 337 331 353 4 13 71 71 44 26 27 18 3 11 19 25 36 22 17 29 40 43 28 9 11 12 7 22 6 224 206 199 140 123 119
188 142 164 154 190 250 350 239 78 158 214 28 5 11 47 35 31 54 37 34 10 12 13 15 23 30 23 26 12 38 41 25 27 37 39 33 26 33 32 76 71 80 117 114
213 142 174 176 192 93 29 76 65 97 90 50 35 24 53 36 34 23 41 24 29 15 3 8 22 26 27 30 19 26 22 19 46 51 43 46 48 41 37 46 54 65 90 105
68 6 3 105 151 106 70 43 50 44 65 69 60 56 49 47 31 40 31 28 36 16 2 4 13 28 26 20 26 30 21 23 36 58 63 60 61 58 52 48 38 43 29 89
357 6 357 83 37 86 48 44 38 37 32 83 66 54 48 43 41 36 38 36 32 24 13 14 19 23 11 8 30 30 37 43 54 48 39 54 77 80 76 65 55 57 46 35
1 359 19 81 302 60 68 39 41 36 70 51 57 60 46 46 45 45 42 33 32 28 25 25 27 20 6 16 33 30 39 56 68 72 62 39 42 66 84 96 88 72 76 75